Home > Weather > Torrevieja > Past weeks

Flag for Spain Past Weather in Torrevieja, Spain — Yesterday and Last 2 Weeks

Now
81 °F

Passing clouds.


Feels Like: 83 °F
Forecast: 69 / 92 °F
Wind: 13 mph from Northeast

Location: Murcia / San Javier

Current Time: Jul 29, 2016 at 12:24:20 PM

Latest Report: Jul 29, 2016 at 11:00 AM


Visibility: N/A

Pressure: 30.04 "Hg

Humidity: 66%

Dew Point: 68 °F

Location of TorreviejaLocation

Past Weather in Torrevieja — Graph

°F

Torrevieja Temperature Yesterday

Maximum temperature yesterday: 84 °F (at 2:00 PM)
Minimum temperature yesterday: 70 °F (at 7:00 AM)
Average temperature yesterday: 80 °F

High & Low Weather Summary for the Past Weeks

 TemperatureHumidityPressure
High84 °F (Jul 21, 12:00 PM)89% (Jul 20, 7:00 AM)30.21 "Hg (Jul 20, 7:00 AM)
Low70 °F (Jul 17, 8:00 AM)45% (Jul 27, 10:00 AM)29.83 "Hg (Jul 22, 7:00 AM)
Average79 °F68%30.06 "Hg
* Reported Jul 14 11:00 AM — Jul 29 11:00 AM, Torrevieja, Weather by CustomWeather, © 2016

Note: Actual official high and low records may vary slightly from our data, if they occured in-between our weather recording intervals... More about our weather records

Advertising

Torrevieja Weather History for the Previous 24 Hours

Scroll right to see more
 ConditionsComfort  
Time TempWeatherWind HumidityBarometerVisibility
11:00 AM
Fri, Jul 29
81 °FPassing clouds.13 mph66%30.04 "HgN/A
10:00 AM81 °FPassing clouds.13 mph66%30.04 "HgN/A
9:00 AM79 °FSunny.8 mph58%30.01 "Hg10 mi
8:00 AM70 °FSunny.1 mph88%30.01 "Hg10 mi
7:00 AM70 °FClear.3 mph88%30.01 "Hg10 mi
11:00 PM
Thu, Jul 28
77 °FPassing clouds.5 mph83%30.04 "HgN/A
10:00 PM77 °FPassing clouds.6 mph79%30.01 "HgN/A
9:00 PM79 °FPassing clouds.9 mph74%30.01 "HgN/A
8:00 PM81 °FPassing clouds.12 mph74%30.01 "HgN/A
7:00 PM82 °FPassing clouds.13 mph70%30.01 "HgN/A
6:00 PM82 °FPassing clouds.13 mph70%30.01 "HgN/A
5:00 PM82 °FPassing clouds.15 mph70%30.04 "HgN/A
4:00 PM84 °FPassing clouds.15 mph66%30.04 "HgN/A
3:00 PM84 °FPassing clouds.14 mph66%30.07 "HgN/A
2:00 PM84 °FPassing clouds.14 mph66%30.07 "HgN/A
1:00 PM82 °FPassing clouds.16 mph70%30.09 "HgN/A
12:00 PM82 °FPassing clouds.16 mph70%30.07 "HgN/A
Weather by CustomWeather, © 2016

See weather overviewHow to use our weather pages